Location: *
(34.8620°S, 39.3380°E)
Time: 21:26:21
(UTC+00:00)

ISS - Pass Details

Date: 30 October 2021
Orbit: 417 x 423 km, 51.6° (Epoch: 28 November)

Event Time Altitude Azimuth Distance (km) Brightness Sun altitude
Rises 16:45:04 0° 212° (SSW) 2,414 1.2 -11.2°
Reaches altitude 10° 16:48:39 10° 173° (S) 1,544 -0.6 -11.9°
Maximum altitude 16:49:39 11° 157° (SSE) 1,485 -0.9 -12.0°
Drops below altitude 10° 16:50:39 10° 140° (SE) 1,542 -1.0 -12.2°
Enters shadow 16:52:05 - 120° (ESE) 1,796 -0.9 -12.5°
